This is the latest recevied weather packets stored in our database for station/object p43g-13. If no packets are shown the sender has not sent any weather packets the latest 10 day(s).
| Time | Temp. | Humidity | Pressure | Rain* | Wind** | Luminosity | Snow |
|---|---|---|---|---|---|---|---|
| 1788034555 | 31.67° C | 76% | 1008.7 hPa | 0 mm | - | 476 W/m² | - |
| 1788034255 | 31.67° C | 77% | 1008.6 hPa | 0 mm | - | 158 W/m² | - |
| 1788033955 | 31.67° C | 77% | 1008.9 hPa | 0 mm | - | 203 W/m² | - |
| 1788033655 | 31.67° C | 77% | 1009 hPa | 0 mm | - | 549 W/m² | - |
| 1788033355 | 31.67° C | 76% | 1009 hPa | 0 mm | - | 608 W/m² | - |
| 1788033055 | 31.11° C | 76% | 1009.1 hPa | 0 mm | - | 613 W/m² | - |
| 1788032755 | 31.67° C | 75% | 1009.1 hPa | 0 mm | - | 640 W/m² | - |
| 1788032455 | 31.67° C | 75% | 1009.2 hPa | 0 mm | - | 634 W/m² | - |
| 1788032155 | 31.67° C | 75% | 1009.2 hPa | 0 mm | - | 638 W/m² | - |
| 1788031855 | 32.22° C | 75% | 1009.2 hPa | 0 mm | - | 729 W/m² | - |
| 1788031555 | 32.78° C | 72% | 1009.1 hPa | 0 mm | - | 271 W/m² | - |
| 1788031256 | 32.22° C | 74% | 1009.4 hPa | 0 mm | - | 816 W/m² | - |
| 1788030955 | 32.22° C | 73% | 1009.3 hPa | 0 mm | - | 747 W/m² | - |
| 1788030654 | 32.22° C | 72% | 1009.2 hPa | 0 mm | - | 827 W/m² | - |
| 1788030355 | 32.22° C | 73% | 1009.4 hPa | 0 mm | - | 214 W/m² | - |
| 1788030055 | 32.78° C | 72% | 1009.2 hPa | 0 mm | - | 784 W/m² | - |
| 1788029755 | 32.78° C | 71% | 1009.4 hPa | 0 mm | - | 485 W/m² | - |
| 1788029455 | 32.78° C | 71% | 1009.2 hPa | 0 mm | - | 773 W/m² | - |
| 1788029155 | 32.78° C | 72% | 1009.4 hPa | 0 mm | - | 892 W/m² | - |
| 1788028855 | 32.78° C | 73% | 1009.5 hPa | 0 mm | - | 958 W/m² | - |
| 1788028556 | 32.22° C | 73% | 1009.8 hPa | 0 mm | - | 905 W/m² | - |
| 1788028255 | 32.22° C | 72% | 1009.7 hPa | 0 mm | - | 535 W/m² | - |
| 1788027955 | 32.78° C | 71% | 1010 hPa | 0 mm | - | 1017 W/m² | - |
| 1788027655 | 32.78° C | 71% | 1009.9 hPa | 0 mm | - | 954 W/m² | - |
| 1788027355 | 32.22° C | 72% | 1010 hPa | 0 mm | - | 930 W/m² | - |
* Rain latest hour (hover to see other rain measurements)
** Current wind speed in m/s (hover to see current wind gust speed)